Zurück zum Katalog

ARIANE 42P+ DEB

LostHEO
NORAD 34196·DEBRIS·🇫🇷 France

Gestartet Oct 28, 1992 von Guiana Space Centre

Loading…

Nächste Überflüge (nächste 24 Stunden)

TLE

VeraltetSource: Space-Track

Epoche: Feb 20, 2024, 02:50 UTC

1 34196U 92072AC  24051.11841330  .00000018  00000-0  38460-3 0  9999
2 34196   7.2921 190.9161 6466075  59.8322 348.5387  2.90624810183862

Verfolge ARIANE 42P+ DEB in Echtzeit mit AllMySat

Download on the App Store